Location: Plainartige
(45.6866°N, 1.7993°E)
Time: 14:45:26
(UTC+00:00)

COSMOS 2428 - Pass Details

Date: 03 March 2021
Orbit: 845 x 858 km, 70.9° (Epoch: 16 April)

Event Time Altitude Azimuth Distance (km) Brightness Sun altitude
Rises 21:00:05 0° 227° (SW) 3,395 6.0 -34.2°
Reaches altitude 10° 21:02:40 10° 234° (SW) 2,464 5.3 -34.6°
Enters shadow 21:07:08 39° 282° (WNW) 1,255 3.9 -35.2°
Exits shadow 21:13:52 - 17° (NNE) 2,658 5.4 -36.2°
Sets 21:15:59 0° 23° (NNE) 3,424 6.0 -36.5°
